Location: Newark
(40.0667°N, 18.0500°E)
Time: 13:23:10
(UTC+00:00)

N. Korean satellite - Pass Details

Date: 31 January 2020
Orbit: 456 x 505 km, 97.2° (Epoch: 29 February)

Event Time Altitude Azimuth Distance (km) Brightness Sun altitude
Rises 04:43:44 0° 9° (N) 2,563 10.2 -14.4°
Reaches altitude 10° 04:45:48 10° 7° (N) 1,686 9.3 -14.0°
Maximum altitude 04:49:25 69° 284° (WNW) 531 6.5 -13.4°
Drops below altitude 10° 04:53:03 10° 200° (SSW) 1,696 9.2 -12.7°
Sets 04:55:08 0° 198° (SSW) 2,580 10.2 -12.3°
